Regional Weather Roundup
Issued by NWS Cleveland, OH

Home | Current Version | Previous Version | Text Only | Print | Product List | Glossary Off
Versions: 1 2 3 4 5 6 7 8 9 10 11 12 13 14 15 16 17 18 19 20 21 22 23 24 25 26 27 28 29 30 31 32 33 34 35 36 37 38 39 40 41 42 43 44 45 46 47 48 49 50

051
ASUS41 KCLE 201102
RWRCLE
OHIO REGIONAL WEATHER ROUNDUP
NATIONAL WEATHER SERVICE CLEVELAND, OH
700 AM EDT SUN MAY 20 2018

NOTE: "FAIR" INDICATES FEW OR NO CLOUDS BELOW 12,000 FEET WITH NO
SIGNIFICANT WEATHER AND/OR OBSTRUCTIONS TO VISIBILITY.

OHZ001>008-015>018-024>027-034-035-043-044-201200-
   NORTHWEST OHIO

CITY           SKY/WX    TMP DP  RH WIND       PRES   REMARKS
DEFIANCE       CLOUDY    60  55  83 N10       30.07R
FINDLAY        CLOUDY    61  57  87 W5        30.06R
TOLEDO EXPRESS CLOUDY    60  59  96 NW5       30.06R
TOLEDO EXEC    CLOUDY    62  57  83 NW6       30.06R
LIMA           CLOUDY    58  57  97 N8        30.06R
$$

OHZ009>014-019>023-028>033-038-089-201200-
   NORTHEAST OHIO

CITY           SKY/WX    TMP DP  RH WIND       PRES   REMARKS
CLE-HOPKINS    DRIZZLE   58  56  93 N14       30.06R FOG
CLE-LAKEFRONT  LGT RAIN  55  53  93 NE9       30.05R FOG
CUY CO. ARPT   CLOUDY    57  57 100 NE12      30.04  FOG
LORAIN-ELYRIA  LGT RAIN  60  55  83 N13G24    30.06R
ASHTABULA      CLOUDY    56  56 100 NW5       30.05R FOG
AKRON-CANTON   MOCLDY    65  60  84 NW7       30.03R
WOOSTER        CLOUDY    62  60  93 NW6       30.06R
MANSFIELD      CLOUDY    61  60  97 W6        30.06R
YOUNGSTOWN     CLOUDY    64  62  93 NW9       30.01R FOG
$$

OHZ042-051>053-060>062-070>072-077>081-201200-
  SOUTHWEST OHIO

CITY           SKY/WX    TMP DP  RH WIND       PRES   REMARKS
CINC-COVINGTON MOCLDY    64  63  96 S3        30.05R
CINC-LUNKEN    FAIR      63  63 100 CALM      30.06R FOG
HAMILTON       LGT RAIN  62  28  27 CALM      30.06R
DAYTON         FAIR      61  61 100 NW5       30.07R FOG
WRIGHT-PAT AFB CLOUDY    64  61  90 N8        30.05R
DAYTON GENERAL CLOUDY    68  65  90 NW5       30.05R FOG
WILMINGTON     CLOUDY    63  63 100 CALM      30.06R FOG
$$

OHZ036-037-039>041-045>050-054>059-063>069-073>076-082>088-201200-
  CENTRAL AND SOUTHEAST OHIO

CITY           SKY/WX    TMP DP  RH WIND       PRES   REMARKS
COLUMBUS       MOCLDY    67  65  93 N8        30.04R FOG
OSU AIRPORT    FAIR      63  60  90 NW8       30.05R
BOLTON FIELD   FAIR      65  65  99 NW3       30.05R FOG
RICKENBACK AFB MOCLDY    63  64 100 MISG      30.04R FOG
NEWARK         MOCLDY    68  66  93 W3        30.04R FOG
MARION         CLOUDY    60  57  89 NW6       30.07R
LANCASTER      CLOUDY    67  66  97 W3        30.05R FOG
ZANESVILLE     CLOUDY    66  64  93 CALM      30.04R FOG
NEW PHILLY     NOT AVBL
$$




USA.gov is the U.S. government's official web portal to all federal, state and local government web resources and services.